Location: Huppendorf
(49.9333°N, 11.1500°E)
Time: 05:48:37
(UTC+00:00)

STARLINK-21 - Pass Details

Date: 27 February 2020
Orbit: 529 x 531 km, 53.0° (Epoch: 28 March)

Event Time Altitude Azimuth Distance (km) Brightness Sun altitude
Rises 17:24:22 0° 265° (W) 2,666 10.1 -5.8°
Reaches altitude 10° 17:26:36 10° 269° (W) 1,777 8.1 -6.1°
Maximum altitude 17:30:35 60° 350° (N) 614 3.9 -6.8°
Drops below altitude 10° 17:34:35 10° 71° (ENE) 1,783 5.6 -7.4°
Enters shadow 17:34:49 - 72° (ENE) 1,872 5.7 -7.4°
